Year,Month,Day,Hour,Minute,Value (Times are PST for temperature in C)
2007,10,02,00,00,12.90
2007,10,02,00,01,12.90
2007,10,02,00,02,12.80
2007,10,02,00,03,12.80
2007,10,02,00,04,12.80
2007,10,02,00,05,12.70
2007,10,02,00,06,12.70
2007,10,02,00,07,12.70
2007,10,02,00,08,12.70
2007,10,02,00,09,12.80
2007,10,02,00,10,12.80
2007,10,02,00,11,12.80
2007,10,02,00,12,12.70
2007,10,02,00,13,12.70
2007,10,02,00,14,12.70
2007,10,02,00,15,12.70
2007,10,02,00,16,12.70
2007,10,02,00,17,12.70
2007,10,02,00,18,12.70
2007,10,02,00,19,12.70
2007,10,02,00,20,12.60
2007,10,02,00,21,12.60
2007,10,02,00,22,12.60
2007,10,02,00,23,12.60
2007,10,02,00,24,12.60
2007,10,02,00,25,12.60
2007,10,02,00,26,12.60
2007,10,02,00,27,12.60
2007,10,02,00,28,12.60
2007,10,02,00,29,12.60
2007,10,02,00,30,12.60
2007,10,02,00,31,12.60
2007,10,02,00,32,12.60
2007,10,02,00,33,12.60
2007,10,02,00,34,12.70
2007,10,02,00,35,12.70
2007,10,02,00,36,12.60
2007,10,02,00,37,12.60
2007,10,02,00,38,12.60
2007,10,02,00,39,12.60
2007,10,02,00,40,12.60
2007,10,02,00,41,12.60
2007,10,02,00,42,12.60
2007,10,02,00,43,12.50
2007,10,02,00,44,12.50
2007,10,02,00,45,12.50
2007,10,02,00,46,12.50
2007,10,02,00,47,12.40
2007,10,02,00,48,12.40
2007,10,02,00,49,12.40
2007,10,02,00,50,12.40
2007,10,02,00,51,12.40
2007,10,02,00,52,12.50
2007,10,02,00,53,12.50
2007,10,02,00,54,12.50
2007,10,02,00,55,12.60
2007,10,02,00,56,12.60
2007,10,02,00,57,12.60
2007,10,02,00,58,12.70
2007,10,02,00,59,12.80
2007,10,02,01,00,12.80
2007,10,02,01,01,12.80
2007,10,02,01,02,12.80
2007,10,02,01,03,12.80
2007,10,02,01,04,12.70
2007,10,02,01,05,12.70
2007,10,02,01,06,12.70
2007,10,02,01,07,12.60
2007,10,02,01,08,12.50
2007,10,02,01,09,12.40
2007,10,02,01,10,12.20
2007,10,02,01,11,12.10
2007,10,02,01,12,12.10
2007,10,02,01,13,12.00
2007,10,02,01,14,11.90
2007,10,02,01,15,11.90
2007,10,02,01,16,11.80
2007,10,02,01,17,11.80
2007,10,02,01,18,11.80
2007,10,02,01,19,11.80
2007,10,02,01,20,11.80
2007,10,02,01,21,11.80
2007,10,02,01,22,11.80
2007,10,02,01,23,11.70
2007,10,02,01,24,11.70
2007,10,02,01,25,11.70
2007,10,02,01,26,11.70
2007,10,02,01,27,11.70
2007,10,02,01,28,11.70
2007,10,02,01,29,11.70
2007,10,02,01,30,11.70
2007,10,02,01,31,11.70
2007,10,02,01,32,11.70
2007,10,02,01,33,11.80
2007,10,02,01,34,11.80
2007,10,02,01,35,11.90
2007,10,02,01,36,11.90
2007,10,02,01,37,12.00
2007,10,02,01,38,12.10
2007,10,02,01,39,12.20
2007,10,02,01,40,12.20
2007,10,02,01,41,12.20
2007,10,02,01,42,12.30
2007,10,02,01,43,12.30
2007,10,02,01,44,12.30
2007,10,02,01,45,12.40
2007,10,02,01,46,12.40
2007,10,02,01,47,12.50
2007,10,02,01,48,12.50
2007,10,02,01,49,12.50
2007,10,02,01,50,12.50
2007,10,02,01,51,12.50
2007,10,02,01,52,12.50
2007,10,02,01,53,12.60
2007,10,02,01,54,12.70
2007,10,02,01,55,12.70
2007,10,02,01,56,12.80
2007,10,02,01,57,12.80
2007,10,02,01,58,12.90
2007,10,02,01,59,12.90
2007,10,02,02,00,12.90
2007,10,02,02,01,12.90
2007,10,02,02,02,13.00
2007,10,02,02,03,13.00
2007,10,02,02,04,13.00
2007,10,02,02,05,13.00
2007,10,02,02,06,13.10
2007,10,02,02,07,13.10
2007,10,02,02,08,13.00
2007,10,02,17,19,12.30
2007,10,02,17,20,12.30
2007,10,02,17,21,12.30
2007,10,02,17,22,12.30
2007,10,02,17,23,12.30
2007,10,02,17,24,12.30
2007,10,02,17,25,12.30
2007,10,02,17,26,12.30
2007,10,02,17,27,12.30
2007,10,02,17,28,12.30
2007,10,02,17,29,12.30
2007,10,02,17,30,12.40
2007,10,02,17,31,12.40
2007,10,02,17,32,12.40
2007,10,02,17,33,12.40
2007,10,02,17,34,12.40
2007,10,02,17,35,12.40
2007,10,02,17,36,12.40
2007,10,02,17,37,12.40
2007,10,02,17,38,12.40
2007,10,02,17,39,12.40
2007,10,02,17,40,12.40
2007,10,02,17,41,12.40
2007,10,02,17,42,12.40
2007,10,02,17,43,12.40
2007,10,02,17,44,12.40
2007,10,02,17,45,12.40
2007,10,02,17,46,12.40
2007,10,02,17,47,12.40
2007,10,02,17,48,12.40
2007,10,02,17,49,12.40
2007,10,02,17,50,12.40
2007,10,02,17,51,12.40
2007,10,02,17,52,12.40
2007,10,02,17,53,12.40
2007,10,02,17,54,12.30
2007,10,02,17,55,12.30
2007,10,02,17,56,12.30
2007,10,02,17,57,12.30
2007,10,02,17,58,12.30
2007,10,02,17,59,12.30
2007,10,02,18,00,12.30
2007,10,02,18,01,12.30
2007,10,02,18,02,12.30
2007,10,02,18,03,12.20
2007,10,02,18,04,12.20
2007,10,02,18,05,12.20
2007,10,02,18,06,12.20
2007,10,02,18,07,12.20
2007,10,02,18,08,12.20
2007,10,02,18,09,12.20
2007,10,02,18,10,12.20
2007,10,02,18,11,12.20
2007,10,02,18,12,12.20
2007,10,02,18,13,12.20
2007,10,02,18,14,12.20
2007,10,02,18,15,12.20
2007,10,02,18,16,12.20
2007,10,02,18,17,12.20
2007,10,02,18,18,12.20
2007,10,02,18,19,12.20
2007,10,02,18,20,12.20
2007,10,02,18,21,12.10
2007,10,02,18,22,12.10
2007,10,02,18,23,12.10
2007,10,02,18,24,12.10
2007,10,02,18,25,12.10
2007,10,02,18,26,12.10
2007,10,02,18,27,12.10
2007,10,02,18,28,12.20
2007,10,02,18,29,12.20
2007,10,02,18,30,12.20
2007,10,02,18,31,12.20
2007,10,02,18,32,12.20
2007,10,02,18,33,12.20
2007,10,02,18,34,12.20
2007,10,02,18,35,12.20
2007,10,02,18,36,12.20
2007,10,02,18,37,12.20
2007,10,02,18,38,12.10
2007,10,02,18,39,12.10
2007,10,02,18,40,12.10
2007,10,02,18,41,12.10
2007,10,02,18,42,12.10
2007,10,02,18,43,12.10
2007,10,02,18,44,12.10
2007,10,02,18,45,12.10
2007,10,02,18,46,12.10
2007,10,02,18,47,12.10
2007,10,02,18,48,12.10
2007,10,02,18,49,12.10
2007,10,02,18,50,12.10
2007,10,02,18,51,12.10
2007,10,02,18,52,12.10
2007,10,02,18,53,12.10
2007,10,02,18,54,12.10
2007,10,02,18,55,12.10
2007,10,02,18,56,12.10
2007,10,02,18,57,12.10
2007,10,02,18,58,12.00
2007,10,02,18,59,12.00
2007,10,02,19,00,11.90
2007,10,02,19,01,11.90
2007,10,02,19,02,11.90
2007,10,02,19,03,11.90
2007,10,02,19,04,11.90
2007,10,02,19,05,11.90
2007,10,02,19,06,11.90
2007,10,02,19,07,11.90
2007,10,02,19,08,11.90
2007,10,02,19,09,11.90
2007,10,02,19,10,11.90
2007,10,02,19,11,11.90
2007,10,02,19,12,11.90
2007,10,02,19,13,11.80
2007,10,02,19,14,11.80
2007,10,02,19,15,11.80
2007,10,02,19,16,11.80
2007,10,02,19,17,11.80
2007,10,02,19,18,11.80
2007,10,02,19,19,11.80
2007,10,02,19,20,11.80
2007,10,02,19,21,11.80
2007,10,02,19,22,11.80
2007,10,02,19,23,11.80
2007,10,02,19,24,11.80
2007,10,02,19,25,11.80
2007,10,02,19,26,11.80
2007,10,02,19,27,11.80
2007,10,02,19,28,11.80
2007,10,02,19,29,11.80
2007,10,02,19,30,11.80
2007,10,02,19,31,11.80
2007,10,02,19,32,11.80
2007,10,02,19,33,11.80
2007,10,02,19,34,11.80
2007,10,02,19,35,11.80
2007,10,02,19,36,11.80
2007,10,02,19,37,11.80
2007,10,02,19,38,11.80
2007,10,02,19,39,11.90
2007,10,02,19,40,11.90
2007,10,02,19,41,11.90
2007,10,02,19,42,11.90
2007,10,02,19,43,11.90
2007,10,02,19,44,11.90
2007,10,02,19,45,11.90
2007,10,02,19,46,11.90
2007,10,02,19,47,11.90
2007,10,02,19,48,11.90
2007,10,02,19,49,11.90
2007,10,02,19,50,11.90
2007,10,02,19,51,11.90
2007,10,02,19,52,11.90
2007,10,02,19,53,12.00
2007,10,02,19,54,12.00
2007,10,02,19,55,12.00
2007,10,02,19,56,12.00
2007,10,02,19,57,12.00
2007,10,02,19,58,12.00
2007,10,02,19,59,12.00
2007,10,02,20,00,11.90
2007,10,02,20,01,11.90
2007,10,02,20,02,11.90
2007,10,02,20,03,11.90
2007,10,02,20,04,11.90
2007,10,02,20,05,11.90
2007,10,02,20,06,11.90
2007,10,02,20,07,11.80
2007,10,02,20,08,11.80
2007,10,02,20,09,11.80
2007,10,02,20,10,11.80
2007,10,02,20,11,11.80
2007,10,02,20,12,11.80
2007,10,02,20,13,11.80
2007,10,02,20,14,11.80
2007,10,02,20,15,11.80
2007,10,02,20,16,11.80
2007,10,02,20,17,11.70
2007,10,02,20,18,11.70
2007,10,02,20,19,11.70
2007,10,02,20,20,11.70
2007,10,02,20,21,11.60
2007,10,02,20,22,11.60
2007,10,02,20,23,11.60
2007,10,02,20,24,11.60
2007,10,02,20,25,11.60
2007,10,02,20,26,11.60
2007,10,02,20,27,11.60
2007,10,02,20,28,11.60
2007,10,02,20,29,11.60
2007,10,02,20,30,11.60
2007,10,02,20,31,11.50
2007,10,02,20,32,11.50
2007,10,02,20,33,11.50
2007,10,02,20,34,11.50
2007,10,02,20,35,11.50
2007,10,02,20,36,11.50
2007,10,02,20,37,11.40
2007,10,02,20,38,11.40
2007,10,02,20,39,11.40
2007,10,02,20,40,11.40
2007,10,02,20,41,11.40
2007,10,02,20,42,11.40
2007,10,02,20,43,11.40
2007,10,02,20,44,11.40
2007,10,02,20,45,11.50
2007,10,02,20,46,11.50
2007,10,02,20,47,11.40
2007,10,02,20,48,11.40
2007,10,02,20,49,11.40
2007,10,02,20,50,11.40
2007,10,02,20,51,11.40
2007,10,02,20,52,11.40
2007,10,02,20,53,11.40
2007,10,02,20,54,11.40
2007,10,02,20,55,11.40
2007,10,02,20,56,11.40
2007,10,02,20,57,11.40
2007,10,02,20,58,11.50
2007,10,02,20,59,11.50
2007,10,02,21,00,11.60
2007,10,02,21,01,11.60
2007,10,02,21,02,11.60
2007,10,02,21,03,11.60
2007,10,02,21,04,11.60
2007,10,02,21,05,11.60
2007,10,02,21,06,11.60
2007,10,02,21,07,11.60
2007,10,02,21,08,11.60
2007,10,02,21,09,11.60
2007,10,02,21,10,11.60
2007,10,02,21,11,11.60
2007,10,02,21,12,11.60
2007,10,02,21,13,11.60
2007,10,02,21,14,11.60
2007,10,02,21,15,11.60
2007,10,02,21,16,11.60
2007,10,02,21,17,11.60
2007,10,02,21,18,11.60
2007,10,02,21,19,11.60
2007,10,02,21,20,11.60
2007,10,02,21,21,11.60
2007,10,02,21,22,11.60
2007,10,02,21,23,11.60
2007,10,02,21,24,11.60
2007,10,02,21,25,11.70
2007,10,02,21,26,11.60
2007,10,02,21,27,11.60
2007,10,02,21,28,11.60
2007,10,02,21,29,11.60
2007,10,02,21,30,11.60
2007,10,02,21,31,11.60
2007,10,02,21,32,11.60
2007,10,02,21,33,11.60
2007,10,02,21,34,11.60
2007,10,02,21,35,11.50
2007,10,02,21,36,11.50
2007,10,02,21,37,11.40
2007,10,02,21,38,11.40
2007,10,02,21,39,11.40
2007,10,02,21,40,11.30
2007,10,02,21,41,11.30
2007,10,02,21,42,11.30
2007,10,02,21,43,11.30
2007,10,02,21,44,11.30
2007,10,02,21,45,11.30
2007,10,02,21,46,11.20
2007,10,02,21,47,11.20
2007,10,02,21,48,11.20
2007,10,02,21,49,11.20
2007,10,02,21,50,11.20
2007,10,02,21,51,11.20
2007,10,02,21,52,11.20
2007,10,02,21,53,11.20
2007,10,02,21,54,11.20
2007,10,02,21,55,11.20
2007,10,02,21,56,11.30
2007,10,02,21,57,11.30
2007,10,02,21,58,11.20
2007,10,02,21,59,11.20
2007,10,02,22,00,11.20
2007,10,02,22,01,11.20
2007,10,02,22,02,11.20
2007,10,02,22,03,11.20
2007,10,02,22,04,11.20
2007,10,02,22,05,11.20
2007,10,02,22,06,11.20
2007,10,02,22,07,11.30
2007,10,02,22,08,11.30
2007,10,02,22,09,11.30
2007,10,02,22,10,11.20
2007,10,02,22,11,11.30
2007,10,02,22,12,11.30
2007,10,02,22,13,11.30
2007,10,02,22,14,11.40
2007,10,02,22,15,11.40
2007,10,02,22,16,11.40
2007,10,02,22,17,11.40
2007,10,02,22,18,11.40
2007,10,02,22,19,11.30
2007,10,02,22,20,11.30
